Showing default

SATELIOT_2, 60534

Orbit data source: Space-Track

SATELIOT_2, 60534 is a payload satellite owned by Sateliot (ES) in SSO that was launched on Fri, 16 Aug 2024 UTC via an FALCON 9 launch vehicle from the Air Force Western Test Range (AFWTR). Payload-class satellites include a variety of spacecraft equipped with specific instruments for various scientific and technological missions. These include communications satellites like Starlink; space stations such as the ISS; scientific satellites like the Hubble; Earth observation satellites from companies like Planet Labs, Umbra, and HawkEye 360; GPS; miniature CubeSats for education and research; and military/defense satellites.

Loading next visibility...
Identifier
60534, 2024-149BU
Orbit
SSO
Country
Flag of ESES / SPN
Related business
Manufacturer
Endurosat
Mission
Operational Commercial Communications
Bus & Motor
CUBESAT 6U, Unknown motor
Mass
7.407 kg wet, 7.407 kg dry
Launch date (UTC)
2024-08-16 (1 year ago)
Launch vehicle
FALCON 9
Launch site
Air Force Western Test Range (AFWTR)
Object type
Payload
Rocket body
Debris
Shape & HBR
Box + 2 Pan, 0.2 m
Radar Cross Section
0.092 m², Medium (>0.1 m² and < 1m²)

Expand to show TLE details & history
Last TLE update: 6 hours ago

TLE from 6 hours ago
0 SATELIOT_2
1 60534U 24149BU  25289.58947020  .00002836  00000-0  26461-3 0  9990
2 60534  97.7090   3.8737 0001349 110.2652 249.8714 14.94986725 63553
Epoch: 2025-10-16T14:08Z
TLE epoch observation values (Epoch: 2025-10-16T14:08:50.225Z)
Latitude
0.00002°
Longitude
126.31741°
Altitude
585.785 km
Speed
7.567 km/s
True Right ascension
00h 15m 29s
True Declination
0° 00' 00"
Sunlit
Object was in full shadow at epoch
Visualization orbit readout
Latitude
Unknown
Longitude
Unknown
Altitude
Unknown
Speed
Unknown
Apparent Right ascension
Unknown
Apparent Declination
Unknown
Sunlit
N/A
Visualization observer readout
Local Sidereal Time
14:42:00
Azimuth
Unknown
Elevation
Unknown
Doppler factor
Unknown
Orbital elements
Apogee altitude
580.365 km
Perigee altitude
578.488 km
Semi-major axis
6,957.563 km
Eccentricity
0.00013
Inclination
97.709°
RAAN
3.8737°
Arg. of periapsis
110.2652°
True anomaly
249.85689°
Mean anomaly
249.8714°
Eccentric anomaly
249.86414°
Mean motion
3.73988 °/min
Orbital period
96.26 mins
BSTAR
0.00026461
Loading maneuver chart data...
Computing Atmospheric mass density...
Loading historical data...
Loading historical data...
Loading historical data...
Loading historical data...
Loading historical data...
Loading historical data...
Loading historical data...

Documentation

Showing up to 5 results
|